Location: Recife
(8.0585°S, 34.8848°W)
Time: 12:07:36
(UTC-03:00)

Vanguard 1 Rocket - Pass Details

Date: 15 April 2026
Orbit: 655 x 4212 km, 34.3° (Epoch: 12 May)

Event Time Altitude Azimuth Distance (km) Brightness Sun altitude
Rises 18:53:34 0° 250° (WSW) 6,262 12.7 -24.4°
Reaches altitude 10° 18:57:15 10° 255° (WSW) 5,645 12.3 -25.3°
Maximum altitude 19:15:32 50° 324° (NW) 4,571 11.0 -29.8°
Drops below altitude 10° 19:40:20 10° 34° (NNE) 7,257 11.7 -35.9°
Sets 19:46:08 0° 39° (NE) 8,061 12.0 -37.3°
